TimeEST,TemperatureF,Dew PointF,Humidity,Sea Level PressureIn,VisibilityMPH,Wind Direction,Wind SpeedMPH,Gust SpeedMPH,PrecipitationIn,Events,Conditions,WindDirDegrees,DateUTC
12:51 AM,23.0,16.0,74,30.14,-9999.0,Calm,Calm,-,N/A,,Unknown,0,2013-01-03 05:51:00
1:51 AM,23.0,16.0,74,30.14,-9999.0,South,4.6,-,N/A,,Unknown,170,2013-01-03 06:51:00
2:51 AM,24.1,17.1,75,30.13,-9999.0,Variable,3.5,-,N/A,,Unknown,0,2013-01-03 07:51:00
3:51 AM,24.1,18.0,77,30.10,-9999.0,South,5.8,-,N/A,,Unknown,190,2013-01-03 08:51:00
4:51 AM,24.1,18.0,77,30.08,-9999.0,SW,8.1,-,N/A,,Unknown,220,2013-01-03 09:51:00
5:51 AM,24.1,16.0,71,30.04,-9999.0,SSW,9.2,-,N/A,,Unknown,200,2013-01-03 10:51:00
6:51 AM,23.0,15.1,72,30.04,-9999.0,Variable,5.8,-,N/A,,Unknown,0,2013-01-03 11:51:00
7:51 AM,23.0,16.0,74,30.03,-9999.0,SW,5.8,-,N/A,,Unknown,230,2013-01-03 12:51:00
8:51 AM,21.9,16.0,78,30.04,-9999.0,SSW,5.8,-,N/A,,Unknown,210,2013-01-03 13:51:00
9:51 AM,23.0,16.0,74,30.04,-9999.0,WSW,10.4,-,0.01,,Unknown,240,2013-01-03 14:51:00
10:51 AM,21.9,16.0,78,30.03,-9999.0,SW,9.2,20.7,N/A,,Unknown,230,2013-01-03 15:51:00
11:51 AM,23.0,16.0,74,30.01,-9999.0,WSW,10.4,18.4,N/A,,Unknown,250,2013-01-03 16:51:00
12:51 PM,25.0,18.0,75,29.99,-9999.0,West,10.4,19.6,N/A,,Unknown,260,2013-01-03 17:51:00
1:51 PM,26.1,19.9,78,29.99,-9999.0,West,8.1,18.4,N/A,,Unknown,270,2013-01-03 18:51:00
2:51 PM,27.0,19.9,75,29.99,-9999.0,West,10.4,16.1,N/A,,Unknown,270,2013-01-03 19:51:00
3:51 PM,27.0,19.9,75,30.01,-9999.0,Variable,6.9,-,N/A,,Unknown,0,2013-01-03 20:51:00
4:51 PM,28.0,21.0,75,30.03,-9999.0,Variable,6.9,-,N/A,,Unknown,0,2013-01-03 21:51:00
5:51 PM,28.9,19.9,69,30.05,-9999.0,West,8.1,-,N/A,,Unknown,270,2013-01-03 22:51:00
6:51 PM,28.9,19.9,69,30.07,-9999.0,WSW,5.8,-,N/A,,Unknown,250,2013-01-03 23:51:00
7:51 PM,28.9,21.0,72,30.08,-9999.0,West,8.1,-,N/A,,Unknown,260,2013-01-04 00:51:00
8:51 PM,28.9,19.9,69,30.07,-9999.0,West,10.4,18.4,N/A,,Unknown,270,2013-01-04 01:51:00
9:51 PM,28.0,19.9,72,30.07,-9999.0,Variable,5.8,16.1,N/A,,Unknown,0,2013-01-04 02:51:00
10:51 PM,28.9,19.9,69,30.06,-9999.0,WSW,8.1,17.3,N/A,,Unknown,250,2013-01-04 03:51:00
11:51 PM,28.0,19.9,72,30.04,-9999.0,WSW,12.7,21.9,N/A,,Unknown,250,2013-01-04 04:51:00